[[{"header":{"parameterUnit":"m.s-1","parameterCategory":1,"la1":30.2991,"la2":30.254,"lo1":-89.0895,"lo2":-89.0444,"dy":0.0017,"dx":0.0017,"nx":28,"ny":28,"refTime":"2025-06-10T21:00:00:Z","depth":0,"parameterNumber":2,"parameterNumberName":"U-component_of_WINDS"},"data":[0,0,0,0,0,0,0,0,0,0,0,0,0,0,0,0,0,0,0,0,0,0,0,0,0,0,0,0,0,0,0,0,0,0,0,0,0,0,0,0,0,0,0,0,0,0,0,0,0,0,0,0,0,0,0,0,0,0,-1.0447,-1.0446,0,-1.0357,-1.0356,-1.0355,-1.0298,-1.0297,-1.0297,-1.0297,-1.0205,-1.0203,-1.0201,0,0,0,0,0,0,0,0,0,0,0,0,0,-1.0571,-1.0569,-1.0447,-1.0446,-1.0445,-1.0357,-1.0356,-1.0355,-1.0298,-1.0297,-1.0297,-1.0296,-1.0206,-1.0203,-1.0201,0,0,0,0,0,0,0,0,0,0,0,0,0,-1.0503,-1.0568,-1.0447,-1.0406,-1.0401,-1.0358,-1.0356,-1.0355,-1.0298,-1.0297,-1.0297,-1.0296,-1.0206,-1.0203,-1.02,-1.0191,0,0,-1.019,-1.0189,0,0,0,0,0,0,0,0,-1.0507,-1.0498,-1.0413,-1.0409,-1.0403,-1.0338,-1.0366,-1.03,-1.0298,-1.0337,-1.0297,-1.0296,-1.025,-1.0243,-1.0227,-1.0187,-1.0183,-1.019,-1.0188,-1.0187,-1.0186,0,0,0,0,0,0,0,-1.0512,-1.0502,-1.0412,-1.0412,-1.0406,-1.0392,-1.0382,-1.0353,-1.0297,-1.0334,-1.0329,-1.0319,-1.0247,-1.023,-1.0225,-1.0181,-1.019,-1.0187,-1.0186,-1.0184,-1.013,-1.013,0,0,0,0,0,0,-1.0523,-1.0506,-1.0414,-1.0409,-1.0455,-1.039,-1.0379,-1.036,-1.0297,-1.0288,-1.032,-1.0317,-1.0236,-1.0228,-1.0221,-1.0206,-1.0187,-1.0184,-1.0182,-1.013,-1.013,-1.0131,0,0,0,0,0,0,-1.0526,-1.0515,-1.0418,-1.0456,-1.0443,-1.0389,-1.0368,-1.0358,-1.0341,-1.0287,-1.0277,-1.0313,-1.0235,-1.0226,-1.0199,-1.0202,-1.0183,-1.018,-1.0129,-1.013,-1.013,-1.0177,0,0,0,0,0,0,-1.0529,-1.0516,-1.0512,-1.0457,-1.0441,-1.0397,-1.0368,-1.0357,-1.0336,-1.0331,-1.0278,-1.0269,-1.0234,-1.0204,-1.0196,-1.0198,-1.0177,-1.0128,-1.0129,-1.013,-1.0175,-1.0179,-1.0183,0,0,0,0,0,-1.0534,-1.0528,-1.0512,-1.0501,-1.0434,-1.0397,-1.0388,-1.0349,-1.0336,-1.0332,-1.0297,-1.027,-1.0204,-1.0202,-1.0192,-1.0193,-1.0128,-1.0129,-1.013,-1.0173,-1.0178,-1.0182,0,0,0,0,0,0,-1.0585,-1.052,-1.0501,-1.0478,-1.0443,-1.0388,-1.038,-1.0355,-1.0324,-1.0321,-1.0273,-1.0262,-1.024,-1.0214,-1.0213,-1.0181,-1.0163,-1.0162,-1.0199,-1.0203,-1.0207,-1.0213,-1.0175,0,0,0,0,0,-1.0594,-1.0569,-1.0514,-1.0498,-1.0482,-1.0435,-1.0417,-1.0389,-1.0352,-1.0337,-1.0301,-1.0266,-1.0237,-1.0219,-1.0189,-1.0171,-1.0159,-1.0167,-1.0171,-1.0175,-1.0174,-1.0163,-1.0166,-1.0134,-1.0134,-1.0134,0,0,-1.0611,-1.0572,-1.056,-1.0508,-1.0478,-1.0454,-1.0422,-1.0398,-1.038,-1.0334,-1.0306,-1.0279,-1.0237,-1.0214,-1.0203,-1.0192,-1.0181,-1.0176,-1.0179,-1.0177,-1.0165,-1.0168,-1.017,-1.0135,-1.0135,-1.0134,0,0,-1.0629,-1.0598,-1.0582,-1.0553,-1.0509,-1.0477,-1.0474,-1.0422,-1.0402,-1.0374,-1.0339,-1.0317,-1.0268,-1.024,-1.0219,-1.023,-1.0204,-1.0222,-1.0242,-1.0232,-1.0234,-1.0236,-1.024,-1.0242,-1.0222,-1.0222,-1.0222,0,-1.0656,-1.0618,-1.0577,-1.0554,-1.0532,-1.0491,-1.0474,-1.0448,-1.0397,-1.0383,-1.0372,-1.0311,-1.028,-1.025,-1.0253,-1.0238,-1.0233,-1.0227,-1.0237,-1.0239,-1.024,-1.0243,-1.0244,-1.0224,-1.0224,-1.0224,-1.0223,0,-1.0653,-1.0627,-1.0619,-1.0571,-1.0549,-1.0529,-1.0486,-1.0469,-1.0444,-1.0414,-1.0387,-1.0348,-1.031,-1.0302,-1.0277,-1.027,-1.0264,-1.0246,-1.0226,-1.0246,-1.0248,-1.0249,-1.0228,-1.0227,-1.0226,-1.0225,0,0,-1.0699,-1.0629,-1.0627,-1.0605,-1.0554,-1.0533,-1.0513,-1.0476,-1.0462,-1.0429,-1.041,-1.0371,-1.0355,-1.0331,-1.0304,-1.0295,-1.0306,-1.0278,-1.0276,-1.0284,-1.0295,-1.0308,-1.031,-1.0289,-1.0289,-1.029,-1.0298,0,-1.0709,-1.0669,-1.0633,-1.0606,-1.0582,-1.0543,-1.0526,-1.0493,-1.0466,-1.0442,-1.0411,-1.0384,-1.0364,-1.035,-1.034,-1.0307,-1.0307,-1.0306,-1.0272,-1.0271,-1.0282,-1.0311,-1.0324,-1.0334,-1.0299,-1.0299,-1.0299,0,-1.0715,-1.0683,-1.0655,-1.0607,-1.0596,-1.0581,-1.0544,-1.0522,-1.0485,-1.0466,-1.0441,-1.0412,-1.0389,-1.0374,-1.0342,-1.0342,-1.0327,-1.0309,-1.0308,-1.0302,-1.0285,-1.0305,-1.0337,-1.0338,-1.03,-1.03,-1.03,0,-1.0751,-1.0701,-1.0678,-1.066,-1.0604,-1.0595,-1.0571,-1.0533,-1.0514,-1.0483,-1.047,-1.0437,-1.0419,-1.0395,-1.0358,-1.035,-1.0331,-1.0312,-1.0314,-1.0315,-1.031,-1.031,-1.0339,-1.0302,-1.0302,-1.0302,-1.0302,0,-1.0765,-1.0749,-1.0693,-1.0679,-1.066,-1.0619,-1.0602,-1.0575,-1.0542,-1.0522,-1.0487,-1.047,-1.0423,-1.04,-1.0372,-1.035,-1.0342,-1.0326,-1.0319,-1.0328,-1.033,-1.0316,-1.0314,-1.0303,-1.0303,-1.0302,-1.0302,0,-1.08,-1.0762,-1.0734,-1.0684,-1.0672,-1.066,-1.0617,-1.0602,-1.0574,-1.0549,-1.0541,-1.0496,-1.0467,-1.0429,-1.0388,-1.037,-1.0351,-1.034,-1.0364,-1.0359,-1.0363,-1.0363,-1.0382,-1.0382,-1.0347,-1.0348,-1.0348,0,-1.0811,-1.0798,-1.0747,-1.0731,-1.0709,-1.0684,-1.0664,-1.0624,-1.0605,-1.0563,-1.0553,-1.0522,-1.0494,-1.0451,-1.0415,-1.0384,-1.0371,-1.038,-1.0366,-1.0377,-1.037,-1.0371,-1.0369,-1.0383,-1.0383,-1.0384,-1.0384,0,-1.0835,-1.0817,-1.079,-1.0756,-1.0734,-1.0706,-1.0676,-1.0666,-1.0619,-1.06,-1.057,-1.0549,-1.0509,-1.0478,-1.0443,-1.0419,-1.0394,-1.0389,-1.0388,-1.0397,-1.0411,-1.0403,-1.0372,-1.0389,-1.0388,-1.0388,-1.0388,-1.0387,-1.0857,-1.0844,-1.0806,-1.0777,-1.0751,-1.0725,-1.0708,-1.0678,-1.0652,-1.0616,-1.0594,-1.0565,-1.053,-1.048,-1.0458,-1.0436,-1.0426,-1.0424,-1.0423,-1.0423,-1.0426,-1.0416,-1.0429,-1.0429,-1.0429,-1.0429,-1.0429,0,-1.0878,-1.0852,-1.0826,-1.0786,-1.0764,-1.0743,-1.071,-1.0693,-1.0668,-1.0637,-1.0611,-1.0578,-1.0549,-1.0511,-1.048,-1.0469,-1.0457,-1.0462,-1.0461,-1.0456,-1.0437,-1.0441,-1.0472,-1.0472,-1.0472,-1.0472,-1.0472,-1.0472,-1.0886,-1.0862,-1.0841,-1.0804,-1.0779,-1.075,-1.0733,-1.0709,-1.0684,-1.0648,-1.0624,-1.06,-1.0566,-1.0532,-1.0505,-1.0495,-1.0485,-1.0493,-1.048,-1.0462,-1.0458,-1.0454,-1.0457,-1.0492,-1.0492,-1.0501,-1.0501,-1.0501]},{"header":{"parameterUnit":"m.s-1","parameterCategory":1,"la1":30.2991,"la2":30.254,"lo1":-89.0895,"lo2":-89.0444,"dy":0.0017,"dx":0.0017,"nx":28,"ny":28,"refTime":"2025-06-10T21:00:00:Z","depth":0,"parameterNumber":3,"parameterNumberName":"V-component_of_WINDS"},"data":[0,0,0,0,0,0,0,0,0,0,0,0,0,0,0,0,0,0,0,0,0,0,0,0,0,0,0,0,0,0,0,0,0,0,0,0,0,0,0,0,0,0,0,0,0,0,0,0,0,0,0,0,0,0,0,0,0,0,2.4151,2.4152,0,2.4188,2.4188,2.4189,2.4246,2.4247,2.4248,2.4249,2.4286,2.4286,2.4286,0,0,0,0,0,0,0,0,0,0,0,0,0,2.4132,2.4132,2.4151,2.4152,2.4152,2.4188,2.4188,2.4189,2.4246,2.4247,2.4248,2.425,2.4286,2.4286,2.4286,0,0,0,0,0,0,0,0,0,0,0,0,0,2.4152,2.4132,2.4151,2.4185,2.4188,2.4188,2.4188,2.4189,2.4246,2.4247,2.4249,2.425,2.4286,2.4286,2.4286,2.4255,0,0,2.4286,2.4286,0,0,0,0,0,0,0,0,2.4151,2.4152,2.418,2.4183,2.4186,2.4214,2.4195,2.4211,2.4245,2.4224,2.4249,2.4251,2.4261,2.4263,2.4266,2.4257,2.4258,2.4286,2.4286,2.4286,2.4286,0,0,0,0,0,0,0,2.4149,2.4151,2.4166,2.418,2.4184,2.4199,2.4203,2.4198,2.4233,2.4226,2.423,2.4234,2.4263,2.4266,2.4268,2.4259,2.4286,2.4286,2.4286,2.4286,2.4229,2.4227,0,0,0,0,0,0,2.4143,2.415,2.4165,2.4167,2.4172,2.4198,2.4203,2.4204,2.4233,2.4239,2.4232,2.4236,2.4265,2.4268,2.4269,2.4236,2.4286,2.4286,2.4286,2.423,2.4228,2.4226,0,0,0,0,0,0,2.4142,2.4144,2.4163,2.4159,2.4163,2.4197,2.4197,2.4203,2.4207,2.4238,2.4245,2.4229,2.4267,2.4269,2.4259,2.4238,2.4286,2.4286,2.4232,2.4229,2.4227,2.4169,0,0,0,0,0,0,2.4141,2.4143,2.4131,2.4159,2.4163,2.4151,2.4196,2.4203,2.4207,2.4212,2.4237,2.4243,2.4268,2.4258,2.4259,2.4239,2.4286,2.4234,2.4231,2.4228,2.4173,2.4165,2.4159,0,0,0,0,0,2.414,2.4113,2.413,2.4132,2.4149,2.415,2.4153,2.4183,2.4205,2.4194,2.4214,2.4242,2.4241,2.4257,2.4258,2.4238,2.4235,2.4232,2.4228,2.4177,2.4167,2.4159,0,0,0,0,0,0,2.4081,2.4117,2.4137,2.4117,2.413,2.416,2.4146,2.4171,2.4178,2.4183,2.422,2.4225,2.421,2.4223,2.4241,2.4211,2.4242,2.4239,2.4203,2.4194,2.4187,2.4184,2.4286,0,0,0,0,0,2.4066,2.4064,2.4095,2.4075,2.4081,2.4112,2.4114,2.4136,2.4151,2.4157,2.4177,2.419,2.4193,2.4194,2.4199,2.4176,2.4183,2.4163,2.4155,2.4149,2.4146,2.4137,2.4128,2.4215,2.4215,2.4215,0,0,2.4034,2.4053,2.405,2.4064,2.4076,2.4074,2.4116,2.4111,2.411,2.4156,2.4148,2.4163,2.4181,2.4164,2.4158,2.4175,2.4124,2.4145,2.414,2.414,2.4132,2.4124,2.4117,2.4213,2.4213,2.4213,0,0,2.3975,2.3989,2.3974,2.3987,2.4006,2.4028,2.4024,2.405,2.4062,2.4055,2.409,2.4089,2.4093,2.4105,2.4111,2.4059,2.4086,2.406,2.4021,2.4012,2.4005,2.3999,2.3982,2.3975,2.4056,2.4056,2.4056,0,2.3933,2.393,2.3964,2.3957,2.3963,2.4005,2.3991,2.4002,2.4021,2.4024,2.4043,2.405,2.4065,2.4053,2.404,2.4044,2.4042,2.4057,2.4003,2.3998,2.3993,2.3977,2.397,2.4053,2.4053,2.4054,2.4054,0,2.3878,2.3876,2.3862,2.3881,2.3885,2.3874,2.3907,2.3907,2.393,2.395,2.3943,2.3962,2.3972,2.3971,2.3992,2.3963,2.3973,2.3996,2.4029,2.3981,2.3966,2.396,2.4048,2.4049,2.405,2.4051,0,0,2.3781,2.382,2.3814,2.3824,2.3849,2.3849,2.3841,2.3851,2.3852,2.3864,2.3859,2.3863,2.3886,2.3893,2.3917,2.3908,2.3868,2.3934,2.3935,2.3921,2.3838,2.382,2.3812,2.3885,2.3884,2.3883,2.3836,0,2.3728,2.3717,2.3747,2.3729,2.3728,2.3769,2.3763,2.3778,2.3797,2.38,2.3821,2.3823,2.3853,2.3858,2.3852,2.3874,2.3851,2.3878,2.3882,2.3882,2.3876,2.3804,2.3784,2.3739,2.3831,2.383,2.3829,0,2.3663,2.3673,2.3655,2.3683,2.3684,2.3678,2.3691,2.3692,2.3711,2.3726,2.3735,2.3763,2.3759,2.379,2.3785,2.3802,2.3806,2.3818,2.3817,2.3818,2.3852,2.3804,2.3725,2.3718,2.382,2.3821,2.3822,0,2.3595,2.3604,2.3595,2.3602,2.3635,2.3629,2.3643,2.3663,2.3668,2.368,2.3684,2.3694,2.37,2.3708,2.3739,2.3758,2.3731,2.3764,2.3744,2.3743,2.3736,2.3736,2.3657,2.3737,2.3737,2.3737,2.3738,0,2.3532,2.352,2.3565,2.3559,2.3547,2.3583,2.357,2.3588,2.3606,2.3605,2.3642,2.364,2.368,2.3683,2.3707,2.3701,2.3703,2.3715,2.3722,2.3712,2.3711,2.3715,2.3719,2.3736,2.3736,2.3736,2.3737,0,2.3454,2.3484,2.3477,2.3509,2.3517,2.3506,2.3534,2.3531,2.3553,2.3551,2.3553,2.3588,2.3594,2.3625,2.3638,2.3654,2.364,2.3652,2.3633,2.3637,2.3615,2.3617,2.3537,2.3529,2.3613,2.3613,2.3612,0,2.3412,2.3403,2.3435,2.3437,2.3449,2.3452,2.3458,2.3493,2.3498,2.352,2.3514,2.3523,2.3532,2.354,2.3567,2.3578,2.3591,2.3563,2.3593,2.3584,2.3592,2.3593,2.3593,2.3556,2.3555,2.3554,2.3553,0,2.3334,2.335,2.3357,2.3369,2.3375,2.3386,2.34,2.34,2.344,2.3443,2.345,2.3457,2.3472,2.3481,2.3496,2.3511,2.3539,2.3543,2.3539,2.353,2.3519,2.3526,2.3616,2.3545,2.3546,2.3546,2.3547,2.3547,2.3274,2.3269,2.3291,2.3298,2.3312,2.3324,2.3323,2.3346,2.3352,2.3366,2.3388,2.3392,2.3413,2.3437,2.345,2.3455,2.3471,2.3464,2.3463,2.3461,2.3457,2.3518,2.3458,2.3458,2.3458,2.3458,2.3459,0,2.3199,2.3216,2.3222,2.324,2.3246,2.3272,2.3289,2.3292,2.3296,2.3313,2.3322,2.3331,2.3341,2.3369,2.3381,2.338,2.3393,2.3382,2.3383,2.3386,2.3441,2.3444,2.3371,2.3371,2.3371,2.3371,2.3371,2.3371,2.3161,2.3154,2.3173,2.3175,2.3192,2.3196,2.3204,2.3216,2.3231,2.3239,2.3247,2.3266,2.3288,2.3303,2.3314,2.3322,2.3325,2.331,2.3322,2.3373,2.3382,2.339,2.3393,2.331,2.331,2.3267,2.3267,2.3266]}]]